This demonstration page uses our WeatherBlox Daily Observations layout. Learn more.

Left ArrowRight Arrow

39.01783, -85.05884

Hourly Observations for March 31, 2017

Temp ( °F °C ) Dew Point ( °F °C ) Humidity (%) Winds ( mph kmh ) Pressure ( in mb ) Visibility ( mi km ) Precip ( " mm )
12:14 am 00:14 Cloudy with Rain 57 14 55 13 94 94 NNE 8 13 29.65 1004 4 6 0.00 0.00
12:52 am 00:52 Cloudy with Heavy Rain 58 14.4 57 13.9 97 97 SE 8 13 29.67 1005 3 5 0.21 5.33
1:52 am 01:52 Cloudy with Light Rain 57 13.9 56 13.3 96 96 E 8 13 29.62 1003 8 13 0.11 2.79
2:52 am 02:52 Cloudy with Light Rain 57 13.9 56 13.3 96 96 Calm 29.61 1003 5 8 0.08 2.03
3:52 am 03:52 Cloudy with Light Rain 57 13.9 56 13.3 96 96 SE 6 9 29.58 1002 10 16 0.02 0.51
4:52 am 04:52 Cloudy 57 13.9 56 13.3 96 96 SE 10 17 29.57 1001 10 16 0.00 0.03
5:52 am 05:52 Cloudy with Light Rain 57 13.9 55 12.8 93 93 ESE 14 22 29.55 1001 10 16 0.02 0.51
6:52 am 06:52 Cloudy with Light Rain 56 13.3 55 12.8 97 97 S 7 11 29.56 1001 10 16 0.00 0.03
7:35 am 07:35 Cloudy 55 12.8 53 11.7 93 93 SSW 12 19 29.59 1002 10 16 0.00 0.03
7:52 am 07:52 Cloudy 55 12.8 52 11.1 90 90 SSW 9 15 29.58 1002 10 16 0.00 0.03
8:44 am 08:44 Cloudy 54 12 52 11 94 94 SW 7 11 29.62 1003 10 16 0.00 0.00
8:52 am 08:52 Cloudy 54 12.2 52 11.1 93 93 SW 8 13 29.60 1002 9 14 0.00 0.00
9:52 am 09:52 Cloudy 53 11.7 51 10.6 93 93 WSW 8 13 29.60 1002 8 13 0.00 0.00
10:44 am 10:44 Cloudy 54 12 52 11 94 94 WSW 8 13 29.65 1004 10 16 0.00 0.00
10:52 am 10:52 Cloudy with Light Rain 53 11.7 51 10.6 93 93 WSW 6 9 29.62 1003 5 8 0.00 0.03
11:37 am 11:37 Cloudy with Rain 51 10.6 49 9.4 92 92 WSW 15 24 29.65 1004 2 3 0.02 0.51
11:52 am 11:52 Cloudy with Light Rain 52 11.1 50 10 93 93 W 12 19 29.66 1004 2 3 0.03 0.76
12:33 pm 12:33 Cloudy with Light Rain 53 11.7 51 10.6 93 93 WSW 9 15 29.68 1005 2 3 0.01 0.25
12:49 pm 12:49 Cloudy with Light Rain 54 12 52 11 94 94 WSW 13 20 29.68 1005 10 16 0.01 0.25
12:52 pm 12:52 Cloudy with Light Rain 54 12.2 50 10 87 87 W 13 20 29.67 1005 10 16 0.01 0.25
1:39 pm 13:39 Cloudy 55 12.8 50 10 83 83 W 12 19 29.68 1005 10 16 0.00 0.03
1:52 pm 13:52 Cloudy 55 12.8 50 10 83 83 WSW 12 19 29.68 1005 10 16 0.00 0.03
2:00 pm 14:00 Cloudy 55 13 48 9 77 77 WSW 10 17 29.68 1005 10 16 0.00 0.00
2:18 pm 14:18 Cloudy 55 13 48 9 77 77 W 13 20 29.71 1006 10 16 0.00 0.00
2:52 pm 14:52 Cloudy 55 12.8 48 8.9 77 77 W 12 19 29.70 1006 10 16 0.00 0.03
3:42 pm 15:42 Cloudy with Light Rain 54 12 50 10 88 88 W 15 24 29.74 1007 3 5 0.00 0.00
3:52 pm 15:52 Cloudy with Light Rain 52 11.1 50 10 93 93 W 13 20 29.72 1007 3 5 0.01 0.25
4:13 pm 16:13 Cloudy with Drizzle 53 11.7 50 10 89 89 W 15 24 29.74 1007 6 10 0.01 0.25
4:38 pm 16:38 Cloudy 54 12 50 10 88 88 W 17 28 29.74 1007 10 16 0.00 0.00
4:52 pm 16:52 Cloudy 53 11.7 50 10 89 89 W 13 20 29.74 1007 10 16 0.02 0.51
5:16 pm 17:16 Cloudy 54 12 50 10 88 88 W 12 19 29.74 1007 10 16 0.00 0.00
5:52 pm 17:52 Cloudy with Drizzle 53 11.7 49 9.4 86 86 W 15 24 29.76 1008 10 16 0.00 0.03
6:33 pm 18:33 Cloudy with Drizzle 51 10.6 48 8.9 89 89 WNW 21 33 29.80 1009 9 14 0.00 0.03
6:44 pm 18:44 Cloudy with Drizzle 50 10 48 9 94 94 NW 17 28 29.80 1009 5 8 0.00 0.00
6:52 pm 18:52 Cloudy with Drizzle 49 9.4 48 8.9 97 97 WNW 17 28 29.80 1009 3 5 0.00 0.03
7:52 pm 19:52 Cloudy with Drizzle 47 8.3 45 7.2 93 93 WNW 18 30 29.84 1010 3 5 0.00 0.03
8:16 pm 20:16 Cloudy 46 8 45 7 93 93 WNW 20 31 29.85 1011 8 13 0.00 0.00
8:52 pm 20:52 Cloudy with Drizzle 46 7.8 43 6.1 89 89 WNW 15 24 29.88 1012 8 13 0.00 0.03
9:26 pm 21:26 Cloudy with Drizzle 45 7 43 6 93 93 WNW 13 20 29.94 1014 8 13 0.00 0.00
9:52 pm 21:52 Cloudy 44 6.7 42 5.6 93 93 WNW 13 20 29.91 1013 8 13 0.00 0.03
10:52 pm 22:52 Cloudy 44 6.7 41 5 89 89 WNW 13 20 29.92 1013 8 13 0.00 0.00
11:52 pm 23:52 Cloudy 43 6.1 41 5 93 93 WNW 13 20 29.94 1014 9 14 0.00 0.00

Powered by AerisWeather